Weather reports worldwide

Advertisment
Tyndrum, United Kingdom (99020): temperature & dewpoint: 11.08.2017 08:00:00 - 17.08.2017 08:00:00 (BST)Tyndrum, United Kingdom (99020): visibility: 11.08.2017 08:00:00 - 17.08.2017 08:00:00 (BST)Tyndrum, United Kingdom (99020): precipitation: 11.08.2017 08:00:00 - 17.08.2017 08:00:00 (BST)
Date & Time tt [°C] td [°C] vv [km] rr [mm]
17.08.2017 08:00:00 13,2 10,3 - 0,0
17.08.2017 07:00:00 12,8 10,2 - 0,0
17.08.2017 06:00:00 12,8 10,4 - 0,0
17.08.2017 05:00:00 11,9 10,3 - 0,0
17.08.2017 04:00:00 13,1 11,3 - 0,2
17.08.2017 03:00:00 10,8 9,9 - 0,0
17.08.2017 02:00:00 12,6 11,5 - 0,0
17.08.2017 01:00:00 12,8 12,0 - 0,4
17.08.2017 00:00:00 13,6 12,0 - 0,2
16.08.2017 23:00:00 15,0 14,0 - 0,8
16.08.2017 22:00:00 15,2 14,0 - 2,2
16.08.2017 21:00:00 15,0 14,0 - 0,4
16.08.2017 20:00:00 14,8 13,8 - 0,6
16.08.2017 19:00:00 14,6 13,6 - 3,8
16.08.2017 18:00:00 14,5 13,2 - 1,2
16.08.2017 17:00:00 14,7 13,2 - 0,0
16.08.2017 16:00:00 14,4 13,1 - 1,6
16.08.2017 15:00:00 14,0 12,2 - 0,8
16.08.2017 14:00:00 13,9 12,2 - 0,4
16.08.2017 13:00:00 13,2 11,3 - 0,6
16.08.2017 12:00:00 13,8 10,8 - 0,2
16.08.2017 11:00:00 14,1 10,1 - 0,0
16.08.2017 10:00:00 13,7 10,7 19 0,0
16.08.2017 09:00:00 12,3 11,6 - 0,0
16.08.2017 08:00:00 10,3 10,2 - 0,0
16.08.2017 07:00:00 9,0 8,7 - 0,0
16.08.2017 06:00:00 9,0 8,6 - 0,0
16.08.2017 05:00:00 9,3 8,4 - 0,0
16.08.2017 04:00:00 10,2 9,0 - 0,0
16.08.2017 03:00:00 10,6 9,4 - 0,0
16.08.2017 02:00:00 11,7 9,5 - 0,0
16.08.2017 01:00:00 10,9 9,3 - 0,0
16.08.2017 00:00:00 10,5 9,4 - 0,0
15.08.2017 23:00:00 11,0 9,9 - 0,2
15.08.2017 22:00:00 11,3 10,0 - 0,2
15.08.2017 21:00:00 12,5 9,2 - 0,0
15.08.2017 20:00:00 13,2 8,9 - 0,0
15.08.2017 19:00:00 13,7 9,3 - 0,0
15.08.2017 18:00:00 14,2 9,3 - 0,0
15.08.2017 17:00:00 16,6 10,2 - 0,2
15.08.2017 16:00:00 15,9 10,6 - 0,2
15.08.2017 15:00:00 12,9 10,8 - 0,4
15.08.2017 14:00:00 13,4 11,2 - 3,0
15.08.2017 13:00:00 12,9 10,2 - 0,2
15.08.2017 12:00:00 14,4 11,1 - 0,2
15.08.2017 11:00:00 13,6 11,0 - 0,0
15.08.2017 10:00:00 13,4 11,5 10 0,0
15.08.2017 09:00:00 12,5 11,8 - 0,6
15.08.2017 08:00:00 11,2 11,1 - 0,0
15.08.2017 07:00:00 10,2 10,0 - 0,0
15.08.2017 06:00:00 10,5 10,2 - 0,0
15.08.2017 05:00:00 10,7 10,3 - 0,0
15.08.2017 04:00:00 11,1 10,7 - 0,0
15.08.2017 03:00:00 11,7 11,1 - 0,0
15.08.2017 02:00:00 12,1 11,7 - 0,0
15.08.2017 01:00:00 12,4 12,0 - 0,0
15.08.2017 00:00:00 12,6 12,1 - 0,0
14.08.2017 23:00:00 12,7 12,1 - 0,0
14.08.2017 22:00:00 12,9 12,3 10 0,0
14.08.2017 21:00:00 13,6 12,6 - 2,2
14.08.2017 20:00:00 14,8 13,6 - 2,6
14.08.2017 19:00:00 15,1 13,4 - 0,0
14.08.2017 18:00:00 15,8 13,6 - 0,2
14.08.2017 17:00:00 15,1 14,1 - 0,4
14.08.2017 16:00:00 15,4 14,0 - 2,0
14.08.2017 15:00:00 15,4 14,2 - 2,2
14.08.2017 14:00:00 14,8 13,8 - 2,4
14.08.2017 13:00:00 13,9 13,1 - 3,6
14.08.2017 12:00:00 12,9 12,2 - 1,2
14.08.2017 11:00:00 11,6 11,1 - 0,8
14.08.2017 10:00:00 11,3 10,2 30 1,2
14.08.2017 09:00:00 10,8 9,4 - 1,6
14.08.2017 08:00:00 10,7 9,0 - 0,8
14.08.2017 07:00:00 10,1 9,0 - 0,0
14.08.2017 06:00:00 9,9 8,7 - 0,0
14.08.2017 05:00:00 9,1 8,7 - 0,4
14.08.2017 04:00:00 9,0 8,6 - 0,0
14.08.2017 03:00:00 8,9 8,4 - 0,0
14.08.2017 02:00:00 9,1 8,6 - 0,0
14.08.2017 01:00:00 9,3 8,8 - 0,0
14.08.2017 00:00:00 9,4 8,8 - 0,0
13.08.2017 23:00:00 9,6 8,7 - 0,0
13.08.2017 22:00:00 9,8 8,7 - 0,0
13.08.2017 21:00:00 10,3 8,2 - 0,0
13.08.2017 20:00:00 12,3 7,4 - 0,0
13.08.2017 19:00:00 13,9 6,8 - 0,0
13.08.2017 18:00:00 14,5 9,3 - 0,0
13.08.2017 17:00:00 14,6 9,1 - 0,0
13.08.2017 16:00:00 13,6 8,9 - 0,0
13.08.2017 15:00:00 13,4 9,4 - 0,0
13.08.2017 14:00:00 12,7 10,5 - 0,0
13.08.2017 13:00:00 12,1 10,0 - 0,6
13.08.2017 12:00:00 12,8 10,5 - 0,2
13.08.2017 11:00:00 12,0 9,9 - 0,4
13.08.2017 10:00:00 10,8 9,8 - 0,8
13.08.2017 09:00:00 10,2 10,2 - 0,0
13.08.2017 08:00:00 7,8 7,8 - 0,0
13.08.2017 07:00:00 6,2 6,1 - 0,0
13.08.2017 06:00:00 5,4 5,1 - 0,0
13.08.2017 05:00:00 5,2 4,9 - 0,0
13.08.2017 04:00:00 5,6 5,4 - 0,0
13.08.2017 03:00:00 4,8 4,2 - 0,0
13.08.2017 02:00:00 6,0 5,6 - 0,0
13.08.2017 01:00:00 6,5 5,7 - 0,0
13.08.2017 00:00:00 7,7 6,7 - 0,0
12.08.2017 23:00:00 9,7 8,2 - 0,2
12.08.2017 22:00:00 8,8 6,7 - 0,0
12.08.2017 21:00:00 10,6 6,8 - 0,0
12.08.2017 20:00:00 12,2 9,7 - 0,0
12.08.2017 19:00:00 12,8 9,1 - 0,0
12.08.2017 18:00:00 14,5 7,6 - 0,0
12.08.2017 17:00:00 14,9 7,6 - 0,0
12.08.2017 16:00:00 16,1 8,0 - 0,0
12.08.2017 15:00:00 14,7 8,3 - 0,0
12.08.2017 14:00:00 15,8 7,9 - 0,0
12.08.2017 13:00:00 15,5 8,9 - 0,0
12.08.2017 12:00:00 13,8 8,2 - 0,0
12.08.2017 11:00:00 14,1 8,7 - 0,0
12.08.2017 10:00:00 12,9 10,7 1,0 0,0
12.08.2017 09:00:00 12,1 10,7 - 0,0
12.08.2017 08:00:00 11,4 10,1 - 0,4
12.08.2017 07:00:00 11,8 11,1 - 0,0
12.08.2017 06:00:00 11,9 11,1 - 0,0
12.08.2017 05:00:00 12,1 11,6 - 0,2
12.08.2017 04:00:00 12,4 11,6 - 0,0
12.08.2017 03:00:00 12,2 11,7 - 0,0
12.08.2017 02:00:00 12,1 11,4 - 0,0
12.08.2017 01:00:00 12,4 11,6 - 0,0
12.08.2017 00:00:00 12,4 11,4 - 0,2
11.08.2017 23:00:00 12,4 11,3 - 0,0
11.08.2017 22:00:00 12,4 10,9 - 0,4
11.08.2017 21:00:00 12,5 11,2 - 0,6
11.08.2017 20:00:00 13,2 11,5 - 0,2
11.08.2017 19:00:00 13,7 11,8 - 0,0
11.08.2017 18:00:00 14,0 12,1 - 0,6
11.08.2017 17:00:00 14,6 12,7 - 0,2
11.08.2017 16:00:00 16,8 12,1 - 0,0
11.08.2017 15:00:00 16,9 13,1 - 0,0
11.08.2017 14:00:00 16,0 13,3 - 0,4
11.08.2017 13:00:00 16,7 15,8 - 1,2
11.08.2017 12:00:00 15,8 14,1 - -
11.08.2017 11:00:00 15,1 14,0 - 1,0
11.08.2017 10:00:00 13,7 13,0 0,7 0,8
11.08.2017 09:00:00 13,1 12,3 - 1,2
11.08.2017 08:00:00 12,7 11,9 - 1,6

tt = temperature
td = dewpoint
vv = visibility
rr = precipitation

Next stations